Location: Grange Rosano
(44.4500°N, 6.9667°E)
Time: 19:37:31
(UTC+00:00)

Cosmos 292 Rocket - Pass Details

Date: 26 May 2022
Orbit: 674 x 692 km, 74.0° (Epoch: 01 July)

Event Time Altitude Azimuth Distance (km) Brightness Sun altitude
Exits shadow 01:48:20 26° 181° (S) 1,337 4.8 -17.1°
Maximum altitude 01:50:57 64° 107° (ESE) 760 4.0 -16.9°
Drops below altitude 10° 01:55:42 10° 27° (NNE) 2,131 7.6 -16.4°
Sets 01:58:01 0° 24° (NNE) 3,047 8.8 -16.2°
